TimeEDT,TemperatureF,Dew PointF,Humidity,Sea Level PressureIn,VisibilityMPH,Wind Direction,Wind SpeedMPH,Gust SpeedMPH,PrecipitationIn,Events,Conditions,WindDirDegrees,DateUTC
12:56 AM,46.0,34.0,63,29.91,10.0,WSW,10.4,16.1,0.00,,Overcast,240,2013-10-27 04:56:00
1:56 AM,46.0,33.1,61,29.88,10.0,SW,9.2,-,0.00,,Overcast,220,2013-10-27 05:56:00
2:56 AM,45.0,36.0,71,29.89,10.0,West,10.4,21.9,0.00,Rain,Light Rain,270,2013-10-27 06:56:00
3:56 AM,42.1,37.9,85,29.86,10.0,South,3.5,-,0.01,,Overcast,170,2013-10-27 07:56:00
4:56 AM,43.0,37.9,82,29.84,10.0,South,8.1,-,0.00,Rain,Light Rain,190,2013-10-27 08:56:00
5:56 AM,43.0,37.9,82,29.86,10.0,South,5.8,-,0.01,Rain,Light Rain,180,2013-10-27 09:56:00
6:56 AM,42.1,37.9,85,29.87,10.0,Calm,Calm,-,0.00,,Overcast,0,2013-10-27 10:56:00
7:56 AM,41.0,37.0,86,29.89,10.0,Calm,Calm,-,N/A,,Clear,0,2013-10-27 11:56:00
8:56 AM,45.0,37.9,76,29.90,10.0,SW,5.8,-,N/A,,Partly Cloudy,230,2013-10-27 12:56:00
9:56 AM,48.9,36.0,61,29.90,10.0,West,12.7,-,N/A,,Scattered Clouds,260,2013-10-27 13:56:00
10:56 AM,52.0,34.0,50,29.91,10.0,West,15.0,23.0,N/A,,Scattered Clouds,260,2013-10-27 14:56:00
11:56 AM,51.1,33.1,50,29.91,10.0,NW,10.4,-,N/A,,Overcast,310,2013-10-27 15:56:00
12:56 PM,52.0,32.0,47,29.90,10.0,West,12.7,21.9,N/A,,Overcast,270,2013-10-27 16:56:00
1:56 PM,52.0,30.9,45,29.90,10.0,WNW,15.0,-,N/A,,Mostly Cloudy,290,2013-10-27 17:56:00
2:56 PM,51.1,27.0,39,29.90,10.0,West,11.5,25.3,N/A,,Mostly Cloudy,270,2013-10-27 18:56:00
3:56 PM,53.1,27.0,37,29.91,10.0,WNW,18.4,25.3,N/A,,Mostly Cloudy,290,2013-10-27 19:56:00
4:56 PM,51.1,26.1,38,29.93,10.0,West,13.8,20.7,N/A,,Mostly Cloudy,280,2013-10-27 20:56:00
5:56 PM,48.9,26.1,41,29.97,10.0,West,13.8,19.6,N/A,,Clear,270,2013-10-27 21:56:00
6:56 PM,46.9,26.1,44,30.01,10.0,West,10.4,-,N/A,,Partly Cloudy,270,2013-10-27 22:56:00
7:56 PM,45.0,28.0,52,30.03,10.0,West,11.5,17.3,N/A,,Clear,270,2013-10-27 23:56:00
8:56 PM,44.1,28.0,53,30.04,10.0,West,8.1,-,N/A,,Clear,270,2013-10-28 00:56:00
9:56 PM,42.1,28.0,58,30.06,10.0,West,6.9,-,N/A,,Clear,270,2013-10-28 01:56:00
10:56 PM,42.1,28.0,58,30.09,10.0,SW,4.6,-,N/A,,Clear,230,2013-10-28 02:56:00
11:56 PM,37.9,28.0,68,30.10,10.0,SW,4.6,-,N/A,,Clear,220,2013-10-28 03:56:00